Location: Unspecified
(48.5670°N, 0.0000°E)
Time: 05:03:51
(UTC+00:00)

Transit 4A - Pass Details

Date: 01 September 2019
Orbit: 865 x 980 km, 66.8° (Epoch: 18 September)

Event Time Altitude Azimuth Distance (km) Brightness Sun altitude
Rises 19:28:19 0° 290° (WNW) 3,680 13.6 -8.0°
Reaches altitude 10° 19:32:06 10° 312° (NW) 2,722 11.7 -8.6°
Maximum altitude 19:35:49 16° 348° (NNW) 2,311 10.5 -9.2°
Drops below altitude 10° 19:39:31 10° 24° (NNE) 2,689 10.3 -9.7°
Sets 19:43:14 0° 46° (NE) 3,612 10.8 -10.3°
